Location: Newark
(49.2191°N, 12.6671°E)
Time: 15:22:04
(UTC+00:00)

Transit 4A - Pass Details

Date: 24 January 2020
Orbit: 872 x 973 km, 66.8° (Epoch: 26 February)

Event Time Altitude Azimuth Distance (km) Brightness Sun altitude
Rises 04:11:50 0° 151° (SSE) 3,544 11.3 -25.8°
Reaches altitude 10° 04:16:16 10° 120° (ESE) 2,584 11.0 -25.0°
Maximum altitude 04:18:13 12° 101° (E) 2,456 11.1 -24.7°
Drops below altitude 10° 04:20:09 10° 82° (E) 2,569 11.2 -24.4°
Sets 04:24:30 0° 52° (NE) 3,495 11.6 -23.7°
